Regional Weather Roundup
Issued by NWS Newport/Morehead, NC

Current Version | Previous Version | Graphics & Text | Print | Product List | Glossary Off
Versions: 1 2 3 4 5 6 7 8 9 10 11 12 13 14 15 16 17 18 19 20 21 22 23 24 25 26 27 28 29 30 31 32 33 34 35 36 37 38 39 40 41 42 43 44 45 46 47 48 49 50

645
ASUS42 KMHX 202313
RWRMHX
WEATHER ROUNDUP FOR EASTERN NORTH CAROLINA
NATIONAL WEATHER SERVICE NEWPORT/MOREHEAD CITY NC
600 PM EST FRI JAN 20 2017

NOTE: "FAIR" INDICATES FEW OR NO CLOUDS BELOW 12,000 FEET
WITH NO SIGNIFICANT WEATHER AND/OR OBSTRUCTIONS TO VISIBILITY

NCZ015>017-031-032-045>047-102-103-210000-
NORTH COAST

CITY           SKY/WX    TMP DP  RH WIND       PRES   REMARKS
EDENTON        PTCLDY    50  48  91 CALM      29.88R
ELIZABETH CITY CLOUDY    50  48  93 NE6       29.87S
KITTY HAWK     NOT AVBL
MANTEO         CLOUDY    50  50 100 N7        29.87R

$$

NCZ045>047-081-094-103-104-210000-
CENTRAL COAST

CITY           SKY/WX    TMP DP  RH WIND       PRES   REMARKS
FRISCO         MOCLDY    56  54  93 N6        29.85R FOG

$$

NCZ095-097-098-100-101-210000-
SOUTHERN COAST

CITY           SKY/WX    TMP DP  RH WIND       PRES   REMARKS
BEAUFORT       MOCLDY    63  59  87 SW3       29.86R
CEDAR ISLAND   NOT AVBL
JACKSONVILLE   CLOUDY    65  60  84 SE5       29.84R
PINEY ISLAND   CLOUDY   N/A N/A N/A N6        29.85R
WILMINGTON     CLEAR     66  60  81 S5        29.84R


$$

NCZ011>013-027>030-043-044-078>080-089-090>093-098-210000-
COASTAL PLAIN

CITY           SKY/WX    TMP DP  RH WIND       PRES   REMARKS
AHOSKIE          N/A     49  49  98 CALM      29.89R FOG
CLINTON        CLOUDY    66  59  78 CALM      29.85S
ELIZABETHTOWN  CLEAR     67  58  73 CALM      29.84R
GOLDSBORO      CLOUDY    61  60  97 NE3       29.84R
GREENVILLE     MOCLDY    54  54 100 N3        29.89S
HAVELOCK       MOCLDY    65  58  78 CALM      29.86R
KENANSVILLE    MOCLDY    66  59  77 N3        29.85R
KINSTON        MOCLDY    63  57  82 CALM      29.86R
NEW BERN       MOCLDY    64  57  78 NE3       29.85S
RICHLANDS      CLOUDY    62  61  96 CALM      29.85R
ROCKY MOUNT    MOCLDY    51  51 100 NE3       29.88R
WASHINGTON     PTCLDY    56  54  93 CALM        N/A
WHITEVILLE     CLEAR     67  59  75 CALM      29.84R

$$

AMZ130-135-150-152-154-156-158-170-250-252-270-ANZ085-086-088-633-658-670-210000-
MARINE OBSERVATIONS

STATION/POSITION TIME  TEMP    WIND        PRES    WAVE   SWELL
                       AIR SEA DIR/SP/G            HT/PER HT/PER
                 (UTC) (F)     (DEG/KT/KT) (MB)    (FT/S) (FT/S)
CHESAPEAKE LIGHT NOT AVBL
64 E VA BEACH    2250   55 58   80/ 16/ 19 1010.6    5/11   5/11
DUCK             2248   48 45   60/  5/  6 1010.6
2 E DUCK         2300      45                N/A     4/12   2/12
OREGON INLET     2248           20/  5/  6 1010.8
13E OREGON INLT  NOT AVBL
HATTERAS CG      2248      55  360/  7/  8 1010.5
DIAMOND BUOY     2250   71 76  260/ 16/ 17 1010.2    5/14   3/14
CAPE LOOKOUT     2300   65     220/  6/  8 1010.5
BEAUFORT LAB     2248   62 51  240/  2/  4 1010.0
30 SE NEW RVR IN 2208   64 65  230/  6/  8 1010.7
30 SE NEW RVR IN 2243      64                N/A     4/12   3/12
27 SE WRIGHTSVLE 2208   69 71  220/ 12/ 16 1010.3
5 SE WRIGHTSVLE  2208   58     200/ 10/ 14 1010.2
225 S CAPE HAT   2250   71 70  180/  4/  6 1013.0    6/11   5/11
41 SE CHARLESTON 2250   69 70  240/ 14/ 16 1011.3    3/ 5   2/12

$$




USA.gov is the U.S. government's official web portal to all federal, state and local government web resources and services.